EW8702 Weather Reports


Display with metric or nautical units.
time (UTC)temp
F
wind
direction
speed
MPH
gust
MPH
rain 1hr
in
rain 24hr
in
rain mn
in
humidity
%
barometer
mb
20260504021143 65 294 1.0 5.0 0.00 0.00 0.00 24 1010.0
20260504020122 65 276 1.0 3.0 0.00 0.00 0.00 23 1010.0
20260504015122 66 275 2.0 3.0 0.00 0.00 0.00 24 1010.0
20260504014143 67 274 3.0 4.0 0.00 0.00 0.00 23 1010.1
20260504013122 68 273 2.0 3.0 0.00 0.00 0.00 23 1010.2
20260504012122 69 274 3.0 7.0 0.00 0.00 0.00 22 1010.3
20260504011122 69 279 2.0 4.0 0.00 0.00 0.00 20 1010.3
20260504010122 69 276 1.0 4.0 0.00 0.00 0.00 17 1010.5
20260504005122 70 228 2.0 6.0 0.00 0.00 0.00 20 1010.6
20260504004122 70 215 0.0 2.0 0.00 0.00 0.00 21 1010.7
20260504003122 70 215 1.0 2.0 0.00 0.00 0.00 14 1010.8
20260504002122 70 206 1.0 4.0 0.00 0.00 0.00 18 1010.8
20260504001122 71 261 2.0 4.0 0.00 0.00 0.00 20 1010.8
20260504000122 71 257 1.0 3.0 0.00 0.00 0.00 19 1010.9
20260503235143 70 274 1.0 3.0 0.00 0.00 0.00 16 1010.9
20260503234122 70 272 2.0 4.0 0.00 0.00 0.00 16 1011.0
20260503233122 70 269 1.0 2.0 0.00 0.00 0.00 20 1011.1
20260503232122 70 268 4.0 8.0 0.00 0.00 0.00 15 1011.2
20260503231122 71 262 2.0 6.0 0.00 0.00 0.00 20 1011.3
20260503230122 71 212 1.0 4.0 0.00 0.00 0.00 16 1011.3
20260503225122 70 273 3.0 8.0 0.00 0.00 0.00 20 1011.5
20260503224122 71 271 4.0 8.0 0.00 0.00 0.00 13 1011.6
20260503223143 71 245 3.0 7.0 0.00 0.00 0.00 15 1011.8
20260503222122 72 247 4.0 9.0 0.00 0.00 0.00 14 1011.8
20260503221122 72 263 5.0 10.0 0.00 0.00 0.00 16 1011.9
20260503220122 72 262 3.0 8.0 0.00 0.00 0.00 15 1012.2
20260503215122 72 226 2.0 5.0 0.00 0.00 0.00 19 1012.5
20260503214122 72 270 5.0 11.0 0.00 0.00 0.00 18 1012.6
20260503213122 73 245 4.0 8.0 0.00 0.00 0.00 17 1012.8
20260503212121 73 261 7.0 14.0 0.00 0.00 0.00 16 1012.8
20260503211122 73 254 5.0 12.0 0.00 0.00 0.00 22 1012.9
20260503210143 72 250 4.0 9.0 0.00 0.00 0.00 15 1013.0
20260503205122 72 264 7.0 18.0 0.00 0.00 0.00 15 1013.0
20260503204121 73 250 4.0 9.0 0.00 0.00 0.00 14 1013.1
20260503203122 73 245 5.0 10.0 0.00 0.00 0.00 16 1013.2
20260503202143 73 252 5.0 12.0 0.00 0.00 0.00 15 1013.4
20260503201143 73 251 5.0 11.0 0.00 0.00 0.00 15 1013.4
20260503200122 73 228 4.0 9.0 0.00 0.00 0.00 22 1013.5
20260503195122 72 247 4.0 8.0 0.00 0.00 0.00 18 1013.7
20260503194122 72 258 4.0 9.0 0.00 0.00 0.00 18 1013.9
20260503193122 72 257 4.0 8.0 0.00 0.00 0.00 20 1014.0
20260503192122 72 254 4.0 11.0 0.00 0.00 0.00 14 1014.0
20260503191122 73 276 3.0 8.0 0.00 0.00 0.00 18 1014.1
20260503190122 72 10 2.0 3.0 0.00 0.00 0.00 23 1014.4
20260503185122 72 22 1.0 3.0 0.00 0.00 0.00 23 1014.5
20260503184143 71 100 2.0 3.0 0.00 0.00 0.00 25 1014.8
20260503183122 71 145 2.0 4.0 0.00 0.00 0.00 21 1014.9
20260503182122 70 134 1.0 4.0 0.00 0.00 0.00 28 1015.1
20260503181122 69 128 2.0 7.0 0.00 0.00 0.00 24 1015.3
20260503180122 68 133 2.0 4.0 0.00 0.00 0.00 25 1015.4
20260503175121 68 159 2.0 5.0 0.00 0.00 0.00 28 1015.6
20260503174122 66 162 1.0 5.0 0.00 0.00 0.00 30 1015.8
20260503173121 65 166 2.0 4.0 0.00 0.00 0.00 33 1015.9
20260503172122 64 175 2.0 4.0 0.00 0.00 0.00 33 1016.1
20260503171122 63 168 1.0 5.0 0.00 0.00 0.00 30 1016.2
20260503170121 62 124 2.0 4.0 0.00 0.00 0.00 28 1016.3
20260503160121 55 224 2.0 4.0 0.00 0.00 0.00 38 1016.9
20260503150121 44 314 0.0 2.0 0.00 0.00 0.00 63 1017.5
20260503140122 39 0 0.0 0.0 0.00 0.00 0.00 70 1017.8
20260503130122 35 317 1.0 3.0 0.00 0.00 0.00 69 1017.5
20260503120122 37 314 0.0 2.0 0.00 0.00 0.00 66 1017.2
20260503110122 39 0 0.0 0.0 0.00 0.00 0.00 64 1017.5
20260503100122 40 0 0.0 0.0 0.00 0.00 0.00 61 1017.5
20260503090122 41 313 0.0 2.0 0.00 0.00 0.00 59 1017.3
20260503081122 43 312 0.0 1.0 0.00 0.00 0.00 56 1017.4
20260503080122 43 311 1.0 2.0 0.00 0.00 0.00 56 1017.4
20260503072122 45 0 0.0 0.0 0.00 0.00 0.00 52 1017.4
20260503071122 45 328 0.0 2.0 0.00 0.00 0.00 52 1017.3
20260503070122 45 327 1.0 3.0 0.00 0.00 0.00 52 1017.3
20260503055122 48 326 0.0 1.0 0.00 0.00 0.00 47 1017.0
20260503054122 49 326 1.0 2.0 0.00 0.00 0.00 44 1017.1
20260503053122 50 333 0.0 1.0 0.00 0.00 0.00 41 1017.0
20260503052122 50 335 1.0 2.0 0.00 0.00 0.00 39 1017.0
20260503051122 50 332 2.0 4.0 0.00 0.00 0.00 38 1016.9
20260503050122 51 305 0.0 3.0 0.00 0.00 0.00 39 1017.0
20260503045122 51 298 0.0 2.0 0.00 0.00 0.00 39 1017.0
20260503044122 51 298 0.0 2.0 0.00 0.00 0.00 44 1017.1
20260503043122 52 298 1.0 2.0 0.00 0.00 0.00 40 1017.1
20260503042122 52 297 1.0 3.0 0.00 0.00 0.00 39 1017.1
20260503041122 53 303 2.0 3.0 0.00 0.00 0.00 39 1017.0
20260503040143 54 333 2.0 4.0 0.00 0.00 0.00 34 1017.0
20260503035122 54 330 1.0 2.0 0.00 0.00 0.00 36 1016.9
20260503034122 54 301 1.0 3.0 0.00 0.00 0.00 36 1016.8
20260503033122 55 279 1.0 6.0 0.00 0.00 0.00 41 1016.7
20260503032143 56 278 1.0 4.0 0.00 0.00 0.00 38 1016.6
20260503031122 57 278 1.0 3.0 0.00 0.00 0.00 35 1016.6
20260503030143 59 282 2.0 6.0 0.00 0.00 0.00 37 1016.5
20260503025122 60 288 1.0 3.0 0.00 0.00 0.00 33 1016.5
20260503024122 61 290 1.0 2.0 0.00 0.00 0.00 29 1016.4
20260503023122 62 292 1.0 2.0 0.00 0.00 0.00 26 1016.4
20260503022122 63 292 0.0 1.0 0.00 0.00 0.00 26 1016.3